Weather History for Entrance, BC

Change the Weather History Date:

Monday, October 7, 2013

  Actual Average Record
Temperature  
Mean Temperature 56 °F -  
Max Temperature 60 °F - - ()
Min Temperature 51 °F - - ()
Degree Days  
Heating Degree Days 9    
Growing Degree Days 6 (Base 50)    
Moisture  
Dew Point 46 °F    
Average Humidity 67    
Maximum Humidity 91    
Minimum Humidity 44    
Precipitation  
Precipitation 0.20 in - - ()
Sea Level Pressure  
Sea Level Pressure 29.84 in    
Wind  
Wind Speed 14 mph ()    
Max Wind Speed 23 mph    
Max Gust Speed 28 mph    
T = Trace of Precipitation, MM = Missing Value Source: Averaged Metar Reports

Daily Weather History Graph

Daily Weather History Graph

Search for Another Location

Airport:

Trip Planner

Search our weather history database for the weather conditions in past years. The results will help you decide how hot, cold, wet, or windy it might be!

Date:

Astronomy

Oct. 07, 2013 Rise Set
Actual Time 7:24 AM PDT 6:40 PM PDT
Civil Twilight 6:52 AM PDT 7:12 PM PDT
Nautical Twilight 6:15 AM PDT 7:48 PM PDT
Astronomical Twilight 5:38 AM PDT 8:26 PM PDT
Moon 10:37 AM PDT (10/7) 8:11 PM PDT (10/7)
Length of Visible Light 12h 19m
Length of Day
11h 16m
Waxing Crescent, 9% of the Moon is Illuminated
Oct 7
Waxing Crescent
Oct 11
First Quarter
Oct 18
Full
Oct 26
Last Quarter
Nov 3
New

Hourly Weather History & Observations

Time (PDT) Temp. Dew Point Humidity Pressure Visibility Wind Dir Wind Speed Gust Speed Precip Events Conditions
12:00 AM 56.1 °F 49.1 °F 77% 29.75 in - SSE 23.0 mph - N/A   Unknown
1:00 AM 55.9 °F 48.7 °F 77% 29.76 in - SE 21.9 mph - N/A   Unknown
2:00 AM 55.2 °F 49.1 °F 80% 29.78 in - ESE 18.4 mph 27.6 mph N/A   Unknown
3:00 AM 56.3 °F 46.0 °F 68% 29.77 in - SSE 21.9 mph - N/A   Unknown
4:00 AM 55.2 °F 47.3 °F 75% 29.77 in - SE 19.6 mph - N/A   Unknown
5:00 AM 55 °F 47 °F 66% 29.78 in - SSE 15.0 mph - -  
5:00 AM 55.4 °F 46.9 °F 73% 29.78 in - SSE 15.0 mph - N/A   Unknown
6:00 AM 54.9 °F 47.3 °F 76% 29.78 in - South 16.1 mph - N/A   Unknown
7:00 AM 54.3 °F 47.3 °F 77% 29.78 in - SSE 10.4 mph - N/A   Unknown
8:00 AM 57.2 °F 43.9 °F 61% 29.79 in - SW 11.5 mph - N/A   Unknown
9:00 AM 56.3 °F 43.7 °F 63% 29.81 in - SW 12.7 mph - N/A   Unknown
10:00 AM 57.2 °F 43.2 °F 59% 29.83 in - SW 13.8 mph 19.6 mph N/A   Unknown
11:00 AM 58 °F 42 °F 44% 29.84 in - SSW 13.8 mph - -  
11:00 AM 58.3 °F 42.1 °F 55% 29.84 in - SSW 13.8 mph 20.7 mph N/A   Unknown
12:00 PM 58.8 °F 41.9 °F 53% 29.85 in - SW 9.2 mph - N/A   Unknown
1:00 PM 59.2 °F 41.5 °F 52% 29.86 in - WSW 13.8 mph - N/A   Unknown
2:00 PM 59.4 °F 40.6 °F 50% 29.86 in - WSW 12.7 mph - N/A   Unknown
3:00 PM 58.3 °F 42.6 °F 56% 29.87 in - SSW 11.5 mph - N/A   Unknown
4:00 PM 58.6 °F 43.5 °F 57% 29.87 in - SSW 11.5 mph - N/A   Unknown
5:00 PM 59 °F 44 °F 46% 29.86 in - SW 12.7 mph - -  
5:00 PM 59.4 °F 43.7 °F 56% 29.86 in - SW 12.7 mph - N/A   Unknown
6:00 PM 58.8 °F 44.6 °F 59% 29.87 in - SW 6.9 mph - N/A   Unknown
7:00 PM 57.2 °F 46.8 °F 68% 29.88 in - WNW 8.1 mph - N/A   Unknown
8:00 PM 54.0 °F 49.1 °F 84% 29.90 in - NE 10.4 mph - N/A   Unknown
9:00 PM 52.9 °F 48.9 °F 86% 29.91 in - NNW 11.5 mph - 0.01 in   Unknown
10:00 PM 52.2 °F 49.5 °F 91% 29.93 in - NW 9.2 mph - 0.13 in   Unknown
11:00 PM 52 °F 48 °F 82% 29.95 in - WNW 17.3 mph - -  
11:00 PM 51.6 °F 48.0 °F 87% 29.95 in - WNW 17.3 mph - 0.04 in   Unknown